Temp
-10 -10 -9 -8 -8 -8 -8 -8 -8 -7 -7 -7 -6 -6 -6 -5 -5 -5 -5 -5 -5 -5 -5 -5 -5 -6 -6 -5 -6 -6 -5 -5 -5 -5 -5 -5 -5 -5 -5 -5 -5 -5 -6 -6 -6 -6 -6 -6 -6
-10 -10 -10 -9 -9 -8 -8 -8 -8 -7 -7 -7 -7 -6 -6 -5 -5 -5 -6 -6 -6 -6 -6 -6 -7 -7 -6 -6 -6 -7 -6 -6 -6 -6 -6 -6 -6 -6 -6 -6 -6 -6 -6 -6 -6 -6 -6 -6 -6
-10 -11 -10 -9 -9 -9 -8 -8 -8 -8 -8 -7 -7 -6 -6 -5 -6 -6 -6 -6 -6 -6 -7 -7 -7 -7 -7 -7 -7 -7 -7 -7 -7 -6 -6 -6 -6 -6 -6 -6 -6 -6 -6 -6 -6 -6 -5 -6 -6
-10 -11 -10 -9 -9 -9 -8 -9 -9 -8 -8 -7 -7 -7 -6 -6 -6 -6 -7 -7 -7 -7 -7 -8 -8 -8 -8 -8 -8 -8 -8 -8 -7 -7 -7 -7 -7 -6 -6 -6 -6 -6 -6 -6 -6 -6 -6 -6 -6
-10 -10 -10 -10 -9 -9 -9 -9 -9 -8 -8 -8 -7 -7 -7 -7 -7 -7 -7 -8 -8 -8 -8 -8 -8 -8 -9 -9 -9 -8 -8 -8 -8 -7 -7 -7 -7 -6 -6 -6 -6 -6 -6 -6 -6 -6 -6 -6 -6
-10 -10 -10 -10 -10 -9 -9 -9 -9 -9 -8 -8 -7 -7 -7 -7 -7 -8 -8 -8 -8 -8 -9 -9 -9 -9 -9 -9 -9 -9 -9 -8 -8 -7 -7 -7 -6 -6 -6 -6 -6 -6 -6 -6 -6 -6 -6 -6 -6
-10 -11 -11 -10 -10 -9 -10 -9 -9 -9 -8 -8 -8 -8 -8 -8 -8 -8 -8 -8 -9 -9 -9 -9 -9 -9 -9 -9 -9 -9 -9 -8 -8 -7 -7 -6 -6 -6 -6 -6 -6 -6 -6 -6 -6 -6 -6 -6 -6
-11 -11 -11 -10 -10 -10 -10 -9 -9 -9 -9 -8 -8 -8 -8 -8 -8 -8 -8 -9 -9 -9 -9 -9 -9 -9 -9 -9 -9 -9 -8 -8 -8 -7 -6 -6 -7 -7 -7 -6 -6 -6 -6 -6 -6 -6 -6 -6 -6
-11 -11 -10 -10 -10 -10 -10 -9 -9 -9 -9 -8 -8 -8 -8 -8 -8 -8 -8 -8 -8 -9 -9 -9 -9 -9 -9 -8 -8 -8 -8 -7 -7 -6 -6 -7 -7 -7 -6 -6 -6 -6 -6 -6 -6 -6 -6 -6 -6
-11 -10 -10 -10 -10 -10 -10 -10 -9 -9 -9 -9 -8 -8 -8 -8 -8 -8 -8 -8 -8 -9 -9 -9 -9 -9 -8 -8 -8 -7 -7 -6 -6 -7 -7 -7 -6 -6 -6 -6 -6 -6 -5 -5 -5 -5 -5 -6 -5
-10 -10 -10 -10 -10 -10 -10 -9 -9 -9 -9 -9 -9 -8 -8 -8 -8 -8 -8 -8 -8 -9 -9 -9 -9 -8 -8 -8 -7 -7 -6 -6 -7 -7 -6 -6 -6 -6 -6 -6 -6 -5 -5 -5 -5 -5 -5 -5 -5
-10 -10 -10 -9 -9 -9 -9 -9 -9 -9 -8 -9 -8 -8 -8 -8 -8 -8 -8 -8 -8 -9 -9 -9 -8 -8 -7 -7 -6 -6 -7 -7 -7 -6 -6 -6 -6 -6 -6 -5 -5 -5 -5 -5 -5 -5 -5 -5 -5
-9 -10 -9 -9 -9 -8 -8 -9 -8 -9 -8 -8 -8 -8 -8 -8 -8 -8 -8 -8 -8 -9 -9 -8 -8 -7 -7 -6 -6 -7 -7 -6 -6 -6 -6 -6 -6 -6 -5 -5 -5 -5 -5 -5 -5 -5 -5 -5 -5
-9 -9 -9 -9 -8 -8 -8 -8 -8 -9 -8 -8 -8 -8 -8 -8 -8 -8 -8 -8 -8 -8 -8 -8 -7 -6 -6 -6 -7 -7 -6 -6 -6 -6 -6 -6 -6 -5 -5 -5 -5 -5 -5 -4 -5 -5 -5 -5 -5
-9 -9 -9 -9 -9 -8 -8 -8 -8 -7 -7 -8 -8 -8 -8 -8 -8 -8 -8 -8 -8 -8 -8 -7 -7 -6 -6 -7 -7 -6 -6 -6 -6 -6 -6 -5 -5 -5 -5 -5 -5 -5 -4 -5 -5 -5 -5 -5 -5
-9 -9 -9 -9 -9 -8 -8 -8 -7 -7 -7 -8 -8 -8 -8 -8 -8 -8 -8 -8 -8 -8 -7 -7 -6 -6 -7 -7 -6 -6 -6 -6 -6 -6 -5 -5 -5 -5 -5 -5 -5 -5 -5 -5 -5 -5 -5 -5 -5
-9 -9 -9 -9 -9 -9 -8 -8 -8 -7 -7 -7 -7 -8 -8 -8 -8 -8 -8 -8 -8 -7 -7 -6 -7 -7 -7 -7 -6 -6 -6 -6 -6 -6 -5 -6 -5 -6 -6 -6 -5 -5 -5 -5 -5 -5 -5 -5 -5
-9 -9 -9 -8 -8 -8 -8 -8 -8 -7 -7 -7 -7 -7 -7 -8 -8 -8 -7 -7 -7 -7 -6 -6 -7 -7 -7 -7 -6 -6 -6 -6 -6 -6 -6 -6 -6 -6 -6 -5 -5 -6 -5 -5 -5 -5 -5 -6 -6
-9 -9 -9 -8 -8 -8 -8 -8 -8 -7 -7 -7 -7 -7 -7 -8 -8 -7 -7 -7 -7 -6 -6 -6 -6 -7 -6 -6 -6 -6 -6 -6 -6 -6 -6 -6 -6 -6 -6 -6 -6 -6 -6 -6 -5 -5 -5 -5 -5
-9 -8 -8 -8 -8 -8 -8 -8 -7 -7 -7 -7 -7 -7 -7 -8 -7 -7 -7 -7 -6 -6 -7 -7 -6 -7 -6 -6 -6 -6 -6 -6 -6 -6 -6 -6 -6 -6 -6 -6 -6 -6 -6 -5 -5 -5 -5 -5 -5
-8 -8 -8 -8 -8 -8 -8 -8 -7 -7 -8 -8 -7 -7 -7 -8 -7 -7 -7 -7 -6 -7 -7 -7 -7 -7 -7 -6 -6 -6 -6 -7 -7 -6 -6 -6 -6 -6 -6 -6 -6 -6 -6 -5 -6 -6 -6 -6 -6
-8 -8 -8 -8 -8 -8 -8 -8 -7 -8 -8 -8 -7 -7 -8 -8 -7 -7 -7 -7 -7 -7 -7 -7 -7 -7 -7 -7 -6 -7 -7 -7 -7 -6 -6 -6 -6 -6 -6 -6 -6 -6 -6 -6 -6 -6 -6 -6 -5
-8 -8 -8 -8 -8 -8 -8 -7 -8 -7 -7 -7 -7 -7 -7 -7 -7 -7 -7 -7 -6 -6 -7 -7 -7 -7 -7 -7 -7 -7 -7 -7 -7 -7 -7 -7 -6 -6 -6 -6 -6 -6 -6 -6 -6 -6 -6 -5 -6
-8 -8 -8 -7 -8 -8 -8 -7 -8 -7 -7 -7 -7 -7 -7 -7 -7 -6 -6 -6 -6 -6 -7 -7 -7 -6 -6 -6 -6 -7 -7 -7 -7 -7 -7 -6 -6 -6 -6 -6 -6 -6 -6 -6 -6 -6 -6 -6 -6
-8 -8 -8 -7 -8 -7 -8 -8 -8 -7 -7 -7 -7 -7 -7 -7 -7 -6 -6 -6 -6 -6 -7 -7 -6 -6 -6 -6 -6 -6 -7 -7 -6 -6 -6 -6 -6 -6 -6 -6 -6 -6 -6 -6 -6 -6 -6 -6 -6
-8 -8 -8 -7 -7 -7 -8 -8 -8 -7 -7 -7 -7 -7 -7 -7 -7 -7 -6 -6 -6 -6 -6 -6 -6 -6 -6 -6 -7 -7 -6 -7 -6 -6 -6 -6 -6 -6 -6 -6 -6 -6 -6 -6 -6 -6 -6 -6 -6
-9 -9 -8 -8 -7 -7 -8 -8 -8 -7 -7 -7 -7 -7 -7 -7 -7 -6 -6 -6 -6 -6 -6 -6 -6 -6 -6 -6 -6 -6 -6 -6 -6 -6 -6 -6 -6 -6 -6 -6 -6 -6 -6 -6 -6 -6 -6 -6 -7
-9 -9 -9 -8 -8 -7 -7 -8 -8 -8 -8 -7 -7 -7 -7 -7 -7 -7 -6 -6 -6 -6 -6 -6 -6 -6 -6 -6 -6 -6 -6 -6 -6 -6 -6 -6 -6 -6 -6 -6 -6 -6 -6 -6 -6 -6 -6 -7 -7
-9 -9 -9 -9 -9 -8 -7 -8 -8 -8 -8 -8 -8 -7 -7 -7 -7 -7 -7 -6 -6 -6 -6 -6 -6 -6 -6 -6 -6 -6 -6 -7 -6 -6 -6 -6 -6 -6 -6 -6 -7 -7 -6 -6 -6 -7 -7 -7 -7
-10 -9 -9 -9 -9 -8 -8 -8 -9 -9 -8 -8 -8 -8 -8 -7 -7 -7 -6 -6 -6 -5 -5 -6 -6 -6 -6 -6 -6 -6 -6 -6 -6 -6 -6 -7 -6 -6 -6 -7 -7 -7 -7 -7 -7 -7 -7 -7 -8
Height
5875 5877 5880 5884 5888 5887 5888 5890 5891 5892 5894 5895 5897 5897 5898 5897 5896 5898 5896 5895 5895 5895 5894 5893 5892 5892 5891 5891 5890 5890 5890 5891 5891 5891 5891 5892 5892 5892 5893 5893 5894 5894 5894 5893 5893 5893 5894 5894 5896
5870 5872 5877 5880 5884 5884 5886 5888 5889 5891 5892 5893 5895 5895 5896 5896 5895 5895 5895 5895 5894 5894 5893 5893 5892 5892 5892 5891 5891 5890 5891 5890 5891 5891 5892 5893 5892 5893 5893 5894 5894 5895 5894 5894 5895 5896 5896 5897 5896
5866 5868 5873 5877 5880 5882 5884 5886 5887 5889 5890 5891 5893 5893 5893 5894 5894 5894 5894 5894 5893 5893 5893 5893 5893 5893 5892 5892 5892 5892 5891 5892 5892 5892 5893 5894 5894 5894 5895 5895 5895 5896 5896 5897 5898 5899 5899 5898 5899
5862 5865 5869 5873 5876 5879 5881 5883 5885 5887 5888 5889 5891 5892 5892 5892 5892 5893 5893 5893 5893 5893 5893 5893 5893 5893 5893 5893 5893 5893 5893 5893 5893 5894 5894 5895 5895 5897 5897 5897 5898 5898 5899 5900 5901 5900 5900 5900 5901
5857 5860 5864 5869 5873 5876 5879 5881 5883 5885 5886 5888 5889 5890 5890 5890 5891 5892 5892 5893 5893 5893 5893 5893 5893 5893 5893 5893 5893 5894 5894 5894 5895 5895 5896 5897 5898 5899 5899 5900 5900 5900 5902 5903 5902 5903 5903 5903 5903
5852 5855 5860 5866 5870 5874 5876 5879 5881 5883 5885 5886 5888 5888 5889 5890 5890 5891 5892 5893 5893 5894 5894 5894 5894 5894 5894 5894 5894 5895 5895 5896 5896 5897 5898 5899 5900 5901 5902 5902 5902 5903 5904 5904 5904 5905 5905 5905 5905
5846 5850 5856 5861 5866 5871 5874 5877 5879 5882 5884 5884 5886 5887 5888 5889 5890 5891 5892 5893 5894 5895 5895 5895 5896 5896 5895 5896 5896 5897 5897 5898 5899 5899 5901 5902 5903 5903 5903 5904 5904 5905 5906 5906 5906 5906 5906 5906 5906
5841 5846 5852 5858 5863 5869 5872 5875 5878 5880 5882 5883 5884 5886 5887 5887 5889 5890 5892 5893 5894 5895 5896 5896 5897 5897 5897 5898 5898 5898 5899 5900 5900 5901 5903 5904 5905 5905 5905 5906 5907 5907 5908 5907 5907 5908 5907 5907 5907
5838 5845 5850 5855 5860 5866 5869 5873 5876 5878 5879 5881 5882 5884 5886 5887 5888 5890 5891 5893 5894 5896 5897 5897 5898 5899 5899 5899 5899 5900 5900 5901 5902 5904 5905 5906 5907 5907 5907 5908 5908 5909 5909 5908 5909 5908 5908 5907 5907
5839 5844 5848 5852 5857 5862 5867 5870 5874 5876 5878 5879 5880 5881 5884 5886 5887 5889 5891 5893 5894 5896 5897 5898 5899 5900 5900 5900 5900 5901 5901 5903 5905 5906 5907 5907 5908 5908 5909 5909 5909 5909 5909 5909 5909 5908 5908 5908 5907
5839 5843 5846 5850 5855 5859 5863 5867 5871 5874 5876 5878 5879 5880 5882 5885 5887 5888 5890 5893 5895 5896 5897 5898 5899 5899 5900 5900 5901 5902 5904 5905 5906 5907 5907 5908 5909 5909 5909 5909 5909 5909 5910 5909 5909 5909 5908 5908 5907
5840 5841 5844 5849 5852 5857 5861 5865 5869 5871 5873 5876 5877 5878 5881 5883 5885 5887 5889 5892 5894 5896 5897 5897 5898 5899 5900 5902 5903 5904 5906 5907 5907 5907 5908 5909 5909 5909 5909 5910 5910 5910 5909 5909 5909 5908 5907 5907 5907
5838 5841 5843 5846 5849 5853 5857 5861 5864 5869 5870 5873 5875 5876 5879 5881 5884 5887 5889 5891 5893 5894 5895 5897 5898 5900 5901 5903 5904 5906 5907 5907 5907 5908 5908 5908 5909 5909 5909 5910 5910 5909 5909 5908 5908 5907 5906 5906 5906
5838 5838 5841 5843 5846 5849 5853 5856 5862 5865 5866 5870 5872 5874 5877 5880 5882 5886 5887 5889 5891 5893 5895 5896 5898 5900 5902 5904 5905 5906 5906 5907 5907 5907 5908 5908 5908 5909 5909 5909 5909 5908 5908 5907 5907 5906 5905 5905 5905
5837 5838 5839 5841 5842 5845 5848 5854 5859 5858 5865 5869 5870 5873 5876 5878 5882 5884 5886 5888 5890 5893 5895 5897 5899 5901 5903 5904 5905 5905 5906 5906 5907 5907 5907 5908 5909 5909 5909 5908 5907 5907 5905 5905 5905 5904 5904 5903 5904
5837 5838 5838 5840 5841 5842 5846 5850 5853 5859 5862 5864 5867 5870 5874 5877 5880 5883 5885 5887 5890 5892 5894 5897 5899 5902 5903 5904 5904 5905 5905 5905 5906 5906 5907 5908 5908 5908 5908 5908 5907 5906 5905 5904 5903 5903 5903 5903 5904
5837 5837 5837 5839 5841 5843 5846 5847 5852 5854 5858 5861 5865 5868 5872 5876 5879 5882 5884 5886 5888 5891 5894 5897 5899 5901 5902 5903 5903 5904 5904 5905 5905 5905 5906 5907 5908 5908 5907 5908 5907 5906 5905 5904 5904 5904 5903 5904 5904
5837 5837 5838 5838 5841 5843 5845 5847 5850 5853 5856 5860 5863 5867 5872 5876 5879 5880 5882 5884 5887 5890 5894 5896 5898 5899 5901 5901 5902 5902 5903 5903 5904 5905 5906 5907 5907 5907 5907 5908 5908 5907 5906 5905 5904 5904 5904 5904 5902
5840 5839 5838 5839 5841 5843 5844 5846 5848 5851 5855 5859 5863 5867 5871 5875 5875 5878 5882 5884 5887 5889 5892 5894 5895 5897 5898 5899 5900 5900 5901 5902 5904 5905 5906 5907 5907 5907 5907 5907 5907 5906 5906 5905 5904 5904 5903 5902 5901
5841 5841 5841 5841 5841 5843 5845 5846 5848 5851 5855 5859 5862 5866 5870 5872 5874 5877 5880 5883 5885 5887 5889 5891 5892 5894 5895 5896 5898 5899 5900 5901 5903 5904 5905 5906 5907 5907 5906 5906 5906 5906 5905 5905 5904 5903 5901 5900 5898
5840 5840 5841 5842 5842 5843 5845 5846 5849 5852 5854 5857 5861 5864 5867 5870 5873 5875 5878 5880 5883 5885 5886 5887 5889 5891 5892 5894 5895 5897 5898 5900 5902 5904 5905 5906 5906 5906 5905 5905 5905 5905 5904 5903 5902 5901 5899 5898 5897
5839 5840 5840 5840 5842 5843 5844 5848 5847 5850 5852 5854 5858 5861 5864 5867 5870 5872 5875 5878 5880 5881 5883 5884 5885 5886 5888 5890 5893 5895 5897 5899 5901 5902 5903 5903 5904 5904 5903 5903 5902 5902 5901 5900 5899 5898 5896 5895 5894
5838 5837 5838 5838 5839 5841 5842 5846 5844 5847 5850 5853 5856 5858 5860 5863 5866 5869 5871 5873 5875 5877 5879 5880 5881 5883 5885 5887 5890 5893 5895 5897 5899 5900 5900 5901 5901 5901 5900 5900 5899 5899 5898 5897 5895 5894 5892 5891 5890
5834 5834 5835 5835 5837 5838 5839 5842 5842 5844 5847 5850 5853 5855 5858 5860 5862 5864 5867 5869 5872 5874 5876 5877 5878 5881 5884 5886 5889 5891 5893 5895 5896 5897 5898 5898 5898 5897 5897 5896 5895 5894 5894 5892 5891 5890 5889 5887 5886
5830 5830 5831 5832 5833 5834 5836 5838 5838 5840 5843 5846 5848 5851 5854 5856 5858 5860 5863 5866 5869 5870 5872 5874 5876 5879 5881 5884 5886 5888 5890 5892 5893 5894 5895 5894 5894 5893 5893 5892 5891 5890 5889 5888 5886 5885 5884 5882 5880
5826 5827 5826 5826 5829 5830 5831 5834 5834 5836 5838 5841 5843 5846 5848 5849 5851 5855 5857 5860 5864 5867 5869 5871 5873 5876 5878 5881 5882 5884 5886 5888 5889 5889 5890 5889 5889 5888 5888 5887 5886 5884 5883 5882 5881 5880 5878 5876 5874
5822 5822 5823 5822 5823 5825 5828 5831 5830 5832 5833 5835 5837 5839 5841 5844 5846 5849 5851 5854 5858 5861 5863 5866 5869 5871 5874 5876 5877 5879 5881 5882 5883 5883 5884 5884 5884 5883 5882 5881 5880 5878 5877 5876 5875 5873 5872 5870 5867
5819 5819 5819 5818 5818 5820 5823 5825 5825 5827 5828 5829 5831 5833 5835 5837 5838 5841 5844 5847 5851 5854 5857 5860 5863 5865 5867 5870 5871 5873 5875 5876 5876 5877 5878 5878 5877 5877 5876 5875 5874 5872 5871 5870 5868 5867 5865 5862 5860
5815 5814 5813 5813 5813 5813 5816 5820 5820 5820 5822 5823 5824 5825 5827 5829 5831 5834 5836 5840 5843 5846 5850 5853 5856 5858 5861 5863 5865 5866 5867 5869 5869 5870 5871 5870 5870 5870 5869 5868 5867 5866 5864 5863 5861 5859 5857 5855 5852
5808 5808 5807 5806 5808 5807 5808 5815 5815 5814 5814 5814 5815 5817 5819 5821 5823 5827 5830 5833 5836 5839 5842 5844 5847 5850 5852 5854 5856 5858 5859 5860 5861 5863 5863 5862 5862 5862 5861 5861 5860 5858 5857 5855 5853 5851 5849 5846 5843
Wind_Speed
27 28 24 19 17 18 16 15 14 13 12 11 9 9 10 9 8 8 7 7 7 8 9 7 6 6 5 4 2 2 4 5 7 11 12 12 12 11 10 9 9 9 9 10 12 13 15 17 17
24 28 25 23 18 17 17 15 14 13 11 10 9 10 10 10 9 8 7 7 7 7 5 3 2 2 1 2 4 7 9 10 12 15 17 17 17 16 15 13 12 12 14 16 20 25 28 28 29
21 26 25 24 19 17 16 15 14 13 11 11 10 11 11 9 9 8 7 7 6 5 2 2 1 2 3 5 8 10 13 14 15 17 19 19 19 18 17 21 25 28 30 30 29 29 29 30 30
20 25 27 23 20 18 17 16 14 13 11 10 10 12 12 10 8 7 6 6 5 4 3 2 3 3 5 7 10 12 13 15 16 17 19 21 25 30 30 31 32 32 32 31 31 32 33 35 33
23 25 27 27 21 18 18 17 15 12 10 10 10 11 12 10 8 7 8 6 5 4 4 5 5 6 7 8 9 11 13 14 16 19 24 27 29 31 33 33 33 34 33 34 33 33 32 33 32
25 28 27 29 24 19 18 17 16 12 9 8 9 10 12 11 10 10 8 7 6 7 8 8 8 9 10 11 12 13 15 17 19 22 25 25 26 30 34 34 34 33 32 31 31 31 30 30 30
25 30 28 26 30 21 20 17 15 12 9 7 9 11 12 12 13 11 10 9 9 8 8 8 8 8 9 10 12 14 15 17 19 22 23 26 27 31 32 31 30 29 28 28 28 28 27 26 26
22 29 28 26 30 24 21 19 15 12 9 7 9 12 13 15 15 13 12 12 10 8 8 8 8 8 8 9 10 13 15 17 20 22 26 28 29 29 29 28 26 26 24 24 24 23 23 22 23
18 24 26 25 25 25 23 21 16 13 9 6 11 13 14 17 15 13 13 12 10 9 8 7 8 8 10 11 11 13 15 17 20 24 28 28 27 26 25 23 22 21 19 19 19 20 19 20 21
14 21 23 25 25 24 25 20 16 13 10 7 12 14 14 17 15 14 14 12 10 9 9 9 8 8 9 10 11 13 17 21 24 27 26 25 23 21 21 19 18 17 16 17 17 17 17 18 20
12 20 21 21 23 26 27 22 18 15 14 10 13 15 15 17 16 17 15 13 12 11 10 9 8 9 10 11 11 17 18 23 24 23 22 21 19 18 17 16 14 14 13 13 13 13 15 17 19
11 18 21 20 21 26 27 25 20 19 18 14 14 16 17 18 19 17 16 15 12 11 10 8 8 8 8 8 15 18 19 21 21 20 18 17 15 15 14 13 11 10 10 11 12 13 14 15 16
11 13 16 20 23 27 31 29 28 24 22 17 16 18 19 19 18 17 15 15 13 11 9 7 7 7 7 11 16 18 20 20 18 16 14 13 12 11 10 9 9 8 9 9 10 9 10 10 13
6 9 13 16 21 25 27 32 31 28 24 19 17 19 20 20 20 17 17 14 12 9 7 5 4 6 10 14 18 17 17 16 15 13 11 10 10 10 9 8 8 7 6 7 5 5 6 6 8
6 7 8 11 17 22 26 26 26 35 22 20 18 20 21 22 19 20 17 14 12 9 7 6 6 10 14 16 17 16 14 12 11 10 10 10 10 9 8 9 9 8 6 5 5 6 7 7 8
5 6 7 7 11 18 22 26 30 28 24 22 21 22 23 21 23 21 18 15 11 8 6 6 10 14 15 16 15 14 11 9 9 10 11 10 9 13 13 13 13 13 11 9 9 9 9 10 9
3 4 6 8 10 13 17 23 23 25 26 23 22 22 24 23 23 19 16 13 9 6 5 9 14 14 15 15 14 12 11 10 11 12 10 12 14 14 15 17 18 21 20 19 16 14 13 11 10
2 3 5 9 11 13 15 20 21 22 24 22 21 24 23 24 21 20 14 10 7 5 9 13 13 14 15 15 14 13 12 13 13 13 15 15 15 16 16 13 11 13 15 17 19 18 16 15 16
3 2 4 4 7 8 9 11 15 18 19 20 21 23 23 23 23 17 13 9 7 9 13 14 14 14 16 16 15 14 16 15 15 16 15 14 12 11 9 10 11 13 14 15 16 16 15 15 15
3 2 0 3 5 6 6 10 12 12 16 18 22 23 23 25 18 16 14 10 10 12 14 16 17 17 16 16 17 17 17 17 17 16 13 11 10 8 8 8 10 11 11 12 12 12 13 14 16
5 4 4 4 4 5 7 9 10 13 16 19 22 23 25 24 18 18 14 11 11 14 16 19 21 20 19 18 19 21 19 19 17 14 11 10 8 6 6 5 6 6 6 7 8 10 11 12 14
11 9 9 8 8 7 8 9 12 14 18 21 24 25 26 24 19 17 13 9 12 16 17 18 20 21 22 21 23 21 21 19 16 12 10 8 6 4 3 1 1 2 4 6 9 10 12 14 16
14 14 13 13 11 9 11 8 17 16 19 23 25 26 27 24 22 18 16 14 15 17 18 20 20 20 21 23 23 20 20 18 15 12 9 6 5 5 5 5 6 6 7 8 8 12 13 14 15
17 18 17 15 14 14 13 11 14 17 20 23 26 27 27 25 22 19 16 10 14 15 18 20 20 21 22 22 22 21 18 18 15 12 9 7 7 8 9 10 10 10 11 11 11 12 14 16 18
15 17 19 18 15 14 14 14 16 20 21 25 27 28 28 29 24 20 14 13 15 16 19 20 21 23 22 25 22 21 20 18 15 12 10 10 10 10 12 13 13 13 13 14 14 14 16 18 20
17 16 17 19 16 14 15 13 16 21 23 25 28 29 31 32 28 25 21 17 18 22 21 22 23 24 24 23 23 22 20 18 16 15 15 14 14 14 15 15 16 16 16 16 17 17 18 21 23
18 18 18 18 19 15 14 13 19 21 24 26 31 32 33 34 32 29 27 23 23 27 28 27 26 26 25 25 25 24 22 21 21 20 18 20 19 18 19 18 18 18 19 20 20 20 21 24 27
18 18 20 20 21 17 14 13 19 22 24 27 30 33 35 36 36 34 31 27 27 29 32 32 31 30 30 30 29 28 27 27 26 23 23 25 24 23 23 22 21 21 22 22 23 24 25 28 31
19 19 20 23 23 23 18 17 19 21 25 27 31 33 35 37 39 39 37 34 30 31 32 33 34 35 33 34 34 33 32 32 30 29 29 30 29 28 28 26 24 24 24 25 26 27 30 33 35
23 22 24 24 24 26 25 15 17 18 24 26 29 31 34 38 41 42 40 37 34 32 36 35 36 37 38 38 38 37 37 36 35 34 33 34 33 32 31 29 28 27 28 29 30 33 34 36 38
Wind_Direction
237 237 232 229 233 230 227 227 236 242 245 246 248 253 260 272 281 286 286 284 285 287 293 305 315 317 316 311 330 103 120 129 126 124 127 131 135 138 138 133 130 124 119 106 90 81 77 76 77
238 234 229 222 227 226 223 223 232 236 242 249 254 264 260 265 272 274 268 275 274 275 283 300 316 322 334 111 123 122 124 121 119 117 120 124 125 128 130 127 120 108 98 93 93 92 90 89 85
240 230 225 216 220 221 219 220 227 228 232 243 256 260 256 259 261 257 258 258 253 241 214 165 166 167 149 142 136 134 130 129 128 127 127 126 127 125 121 115 109 105 102 101 99 98 95 90 87
242 228 220 213 214 216 215 213 220 222 229 243 254 263 251 241 237 235 229 219 205 199 173 171 174 168 162 153 147 142 138 138 137 135 132 127 122 118 115 112 110 109 107 104 100 96 92 88 82
241 230 220 212 215 210 211 209 215 220 228 239 249 253 240 226 218 203 190 182 184 178 150 140 131 138 146 151 146 142 141 138 135 131 128 126 124 122 121 120 117 112 107 103 98 94 90 84 79
242 229 221 211 216 210 211 207 211 217 224 236 246 240 227 210 195 182 178 169 163 148 134 130 126 123 121 123 128 131 131 129 130 131 129 126 124 125 123 119 112 110 105 100 95 90 84 80 77
239 224 217 211 213 210 209 207 206 210 210 228 241 225 219 203 185 178 177 166 157 147 139 137 134 131 125 121 121 121 126 127 128 130 123 127 130 128 120 116 113 109 104 99 94 89 84 78 74
232 218 213 207 209 210 208 205 201 205 204 228 239 225 211 203 185 185 182 167 158 152 146 139 138 135 129 125 125 126 127 131 128 123 130 134 133 125 119 115 113 109 105 103 95 90 84 79 73
223 210 212 209 206 209 208 203 198 205 209 231 237 230 211 201 192 188 181 168 159 157 156 154 154 149 139 132 130 124 120 120 126 134 139 136 127 121 117 115 111 108 104 98 92 86 81 75 68
215 209 212 211 205 204 204 201 200 210 219 236 233 229 212 200 196 185 177 172 169 169 171 169 166 150 137 127 121 117 129 140 140 137 135 129 124 120 116 114 111 104 100 97 90 85 80 73 66
212 213 216 217 212 202 200 203 211 218 227 232 230 226 212 201 199 180 176 176 178 181 182 172 152 136 121 115 122 139 148 147 144 137 132 129 125 118 113 113 112 108 105 96 89 83 78 71 65
233 222 219 217 209 204 211 213 219 228 231 227 224 222 210 204 196 183 180 182 185 183 172 155 132 117 112 128 151 163 159 151 140 137 132 128 125 120 118 115 113 109 105 99 90 83 76 69 64
249 236 227 223 218 211 216 222 221 225 230 223 220 218 209 205 194 187 182 184 181 174 164 139 127 126 148 166 170 166 156 147 142 136 129 124 122 120 117 118 118 115 103 93 84 82 76 67 64
261 250 233 227 224 226 217 216 217 223 225 218 219 215 207 201 196 194 192 182 176 167 149 136 131 170 189 182 173 165 157 152 145 136 133 131 127 122 123 121 111 105 98 89 92 82 70 59 64
238 234 228 229 214 222 220 212 206 222 222 218 220 213 207 200 196 201 189 181 178 164 149 146 184 191 192 182 172 168 161 154 146 142 141 140 134 130 122 110 101 94 89 92 94 88 76 62 57
236 223 229 225 211 209 213 208 214 224 219 218 217 207 202 196 201 197 188 179 174 174 158 176 199 202 192 185 178 175 170 164 157 151 146 140 129 120 110 99 86 75 69 68 70 66 61 60 57
231 217 208 216 213 209 203 218 209 216 214 222 210 203 199 198 202 192 189 180 177 170 194 206 203 202 198 196 188 186 185 178 164 154 148 136 126 118 106 97 84 76 72 72 75 72 68 60 45
138 181 200 202 210 214 208 219 208 214 218 212 205 196 197 202 200 193 183 178 180 208 220 220 215 211 208 205 202 201 193 175 165 155 146 140 129 117 108 94 84 76 71 71 71 69 65 54 42
36 101 118 154 186 200 201 216 214 216 210 202 199 195 200 203 199 187 180 186 205 229 239 239 233 222 217 213 209 203 181 174 163 151 148 144 135 125 111 97 85 77 73 68 61 55 48 38 30
327 340 27 166 192 210 216 220 214 201 200 202 198 199 203 205 195 190 191 196 223 245 252 247 235 227 221 216 208 194 180 171 163 154 154 155 149 136 116 100 88 76 64 57 50 39 29 17 9
271 271 268 258 243 217 201 214 206 206 210 203 201 204 207 209 192 197 196 207 245 249 245 244 241 232 225 219 205 189 180 174 168 165 164 161 154 147 134 110 81 69 51 39 31 21 11 4 0
270 264 260 255 252 249 240 210 231 214 213 209 207 208 212 212 199 204 208 228 244 247 241 239 240 233 224 216 196 190 183 179 180 180 182 179 176 186 188 157 10 352 355 356 4 356 355 353 348
266 269 267 265 261 247 255 216 236 214 212 213 212 212 213 209 201 202 205 220 242 244 240 234 231 226 215 198 192 188 186 190 194 198 201 211 227 246 269 277 286 297 307 319 337 337 340 335 331
268 267 265 266 265 257 249 236 225 225 216 217 216 217 215 210 206 206 212 240 247 242 234 227 217 204 195 196 188 191 195 203 210 215 220 236 257 269 280 285 287 289 294 302 314 320 319 320 322
279 270 267 266 263 262 248 236 228 227 218 218 223 222 222 221 213 212 213 228 234 225 220 212 204 199 198 194 199 203 207 211 221 230 242 256 269 280 285 289 290 287 289 295 299 306 310 312 314
279 276 274 266 264 253 249 239 232 229 225 220 225 225 223 225 217 214 213 222 231 226 221 210 207 207 207 210 214 215 217 223 231 245 254 264 271 279 284 286 287 290 290 292 295 297 304 307 311
280 277 275 274 270 260 243 241 239 227 231 224 226 227 225 225 219 214 215 216 228 227 226 223 220 218 219 223 226 226 224 231 239 249 261 265 270 277 281 283 283 287 288 289 293 296 299 303 305
288 287 279 277 271 263 252 232 235 234 234 232 229 230 227 225 221 218 215 217 227 230 230 231 230 229 228 231 232 232 233 236 244 252 257 262 269 274 279 279 279 280 283 284 288 293 298 300 301
279 281 281 276 275 268 255 238 233 233 237 238 236 232 231 229 226 223 219 216 228 234 231 232 234 235 233 235 236 237 239 242 247 249 253 260 265 271 275 277 277 278 280 283 288 291 293 295 298
273 272 272 275 276 271 267 244 249 243 237 238 242 243 237 235 230 228 225 222 227 238 239 231 233 237 236 237 238 240 242 243 247 252 255 258 263 268 271 272 274 274 278 281 284 287 291 295 298